CW3512 Weather Reports


time (UTC)temp
C
wind
direction
speed
KPH
gust
KPH
rain 1hr
cm
rain 24hr
cm
rain mn
cm
humidity
%
barometer
mb
20260505124520 17 0.0 0.0 0.00 0.00 0.00 69 1011.5
20260505123520 17 0.0 0.0 0.00 0.00 0.00 71 1011.5
20260505122541 17 0.0 0.0 0.00 0.00 0.00 72 1011.5
20260505121520 16 0.0 0.0 0.00 0.00 0.00 74 1011.3
20260505120520 16 0.0 0.0 0.00 0.00 0.00 72 1011.0
20260505115519 16 0.0 0.0 0.00 0.00 0.00 73 1010.9
20260505114519 15 0.0 0.0 0.00 0.00 0.00 73 1011.1
20260505113520 15 0.0 0.0 0.00 0.00 0.00 73 1011.0
20260505112520 15 0.0 0.0 0.00 0.00 0.00 73 1011.0
20260505111519 15 0.0 0.0 0.00 0.00 0.00 73 1011.0
20260505110520 15 0.0 0.0 0.00 0.00 0.00 72 1010.9
20260505101520 16 0.0 0.0 0.00 0.03 0.00 70 1010.3
20260505100520 16 0.0 0.0 0.00 0.03 0.00 69 1010.3
20260505095520 16 0.0 0.0 0.00 0.03 0.00 69 1010.2
20260505094519 16 0.0 0.0 0.00 0.03 0.00 68 1009.9
20260505093519 16 0.0 0.0 0.00 0.03 0.00 68 1009.8
20260505092519 16 0.0 0.0 0.00 0.03 0.00 68 1009.8
20260505091519 17 0.0 0.0 0.00 0.03 0.00 67 1009.9
20260505090520 17 0.0 0.0 0.00 0.03 0.00 67 1009.9
20260505085520 17 0.0 0.0 0.00 0.03 0.00 66 1009.8
20260505084520 17 0.0 0.0 0.00 0.03 0.00 66 1009.8
20260505083519 17 0.0 0.0 0.00 0.03 0.00 66 1009.6
20260505082519 17 0.0 11.3 0.00 0.03 0.00 66 1009.4
20260505081519 17 0.0 3.2 0.00 0.03 0.00 66 1009.3
20260505080520 17 0.0 0.0 0.00 0.03 0.00 65 1009.5
20260505075520 17 0.0 0.0 0.00 0.03 0.00 65 1009.4
20260505074520 17 158 1.6 12.9 0.00 0.03 0.00 64 1009.4
20260505073519 17 0.0 3.2 0.00 0.03 0.00 64 1009.4
20260505072520 18 0.0 6.4 0.00 0.03 0.00 64 1009.3
20260505071519 18 0.0 6.4 0.00 0.03 0.00 63 1009.4
20260505070519 18 0.0 0.0 0.00 0.03 0.00 63 1009.3
20260505065519 18 0.0 8.0 0.00 0.03 0.00 63 1009.4
20260505064540 18 0.0 6.4 0.00 0.03 0.00 63 1009.4
20260505063519 18 0.0 1.6 0.00 0.03 0.00 62 1009.4
20260505062519 18 158 1.6 11.3 0.00 0.03 0.00 62 1009.5
20260505061519 18 0.0 0.0 0.00 0.03 0.00 62 1009.5
20260505060539 18 0.0 12.9 0.00 0.03 0.00 62 1009.4
20260505055520 18 0.0 0.0 0.00 0.03 0.00 62 1009.5
20260505054519 18 0.0 4.8 0.00 0.03 0.00 62 1009.5
20260505053519 18 0.0 0.0 0.00 0.03 0.00 62 1009.7
20260505052519 18 0.0 0.0 0.00 0.03 0.00 62 1009.7
20260505051539 18 0.0 0.0 0.00 0.03 0.00 62 1009.7
20260505050520 18 0.0 0.0 0.00 0.03 0.00 62 1009.7
20260505041519 19 0.0 0.0 0.00 0.03 0.00 61 1009.4
20260505040519 19 0.0 0.0 0.00 0.03 0.00 60 1009.4
20260505035539 19 0.0 0.0 0.00 0.03 0.03 60 1009.2
20260505034519 20 0.0 0.0 0.00 0.03 0.03 59 1009.1
20260505033519 20 0.0 0.0 0.00 0.03 0.03 59 1009.0
20260505032519 20 0.0 0.0 0.00 0.03 0.03 58 1009.0
20260505031519 20 0.0 0.0 0.00 0.03 0.03 58 1008.9
20260505030600 20 0.0 0.0 0.00 0.03 0.03 58 1008.8
20260505025519 20 0.0 0.0 0.00 0.03 0.03 58 1008.6
20260505024520 20 0.0 0.0 0.00 0.03 0.03 58 1008.4
20260505023519 20 0.0 0.0 0.00 0.03 0.03 59 1008.2
20260505022520 20 0.0 0.0 0.00 0.03 0.03 59 1008.1
20260505021519 20 0.0 0.0 0.00 0.03 0.03 59 1007.9
20260505020519 20 0.0 1.6 0.00 0.03 0.03 59 1007.7
20260505015519 21 0.0 0.0 0.00 0.03 0.03 59 1007.7
20260505014518 21 0.0 0.0 0.00 0.03 0.03 58 1007.6
20260505013539 21 0.0 0.0 0.00 0.03 0.03 57 1007.5
20260505012519 21 0.0 0.0 0.00 0.03 0.03 56 1007.6
20260505011519 21 0.0 0.0 0.00 0.03 0.03 54 1007.5
20260505010519 22 0.0 9.7 0.00 0.03 0.03 54 1007.4
20260505005519 22 158 1.6 8.0 0.00 0.03 0.03 53 1007.5
20260505004519 22 0.0 4.8 0.00 0.03 0.03 53 1007.4
20260505003519 22 0.0 4.8 0.00 0.03 0.03 53 1007.4
20260505002519 22 0.0 3.2 0.00 0.03 0.03 52 1007.5
20260505001520 22 0.0 0.0 0.00 0.03 0.03 52 1007.6
20260505000519 22 0.0 0.0 0.00 0.03 0.03 52 1007.9
20260504235518 23 0.0 0.0 0.00 0.03 0.03 51 1008.0
20260504234520 23 0.0 0.0 0.00 0.03 0.03 51 1008.1
20260504233519 23 0.0 0.0 0.00 0.03 0.03 52 1008.4
20260504232559 23 0.0 0.0 0.00 0.03 0.03 51 1008.6
20260504231519 23 0.0 0.0 0.00 0.03 0.03 50 1008.6
20260504230519 23 0.0 0.0 0.00 0.03 0.03 48 1008.6
20260504225518 24 0.0 0.0 0.00 0.03 0.03 48 1008.9
20260504224520 24 0.0 0.0 0.00 0.03 0.03 47 1008.9
20260504223519 24 0.0 0.0 0.00 0.03 0.03 45 1008.9
20260504222518 25 0.0 0.0 0.00 0.03 0.03 48 1008.9
20260504221519 25 0.0 0.0 0.00 0.03 0.03 48 1009.0
20260504220518 25 0.0 0.0 0.00 0.03 0.03 47 1009.1
20260504215518 25 0.0 0.0 0.00 0.03 0.03 47 1009.0
20260504214519 25 0.0 0.0 0.00 0.03 0.03 46 1009.1
20260504213518 24 0.0 0.0 0.00 0.03 0.03 47 1009.1
20260504212518 24 0.0 0.0 0.00 0.03 0.03 48 1009.2
20260504211518 25 0.0 0.0 0.00 0.03 0.03 48 1009.2
20260504210519 25 0.0 0.0 0.00 0.03 0.03 49 1009.2
20260504205559 25 0.0 0.0 0.00 0.03 0.03 48 1009.2
20260504204518 25 0.0 0.0 0.00 0.03 0.03 48 1009.3
20260504203518 25 0.0 1.6 0.00 0.03 0.03 49 1009.4
20260504202519 24 0.0 8.0 0.00 0.03 0.03 49 1009.5
20260504201539 24 0.0 0.0 0.00 0.03 0.03 48 1009.6
20260504200519 25 203 4.8 12.9 0.00 0.03 0.03 48 1009.8
20260504195519 24 225 4.8 12.9 0.00 0.03 0.03 50 1010.1
20260504194518 25 180 1.6 6.4 0.00 0.03 0.03 50 1010.2
20260504193518 25 203 3.2 14.5 0.00 0.03 0.03 50 1010.3
20260504192518 25 0.0 8.0 0.00 0.03 0.03 50 1010.5
20260504191538 23 0.0 0.0 0.00 0.03 0.03 52 1010.5
20260504190518 23 0.0 1.6 0.00 0.05 0.03 53 1010.7
20260504185539 23 0.0 0.0 0.00 0.05 0.03 55 1010.6
20260504184518 23 0.0 0.0 0.00 0.05 0.03 54 1010.6
20260504183519 23 0.0 0.0 0.00 0.05 0.03 55 1010.6
20260504182518 23 158 1.6 16.1 0.00 0.05 0.03 57 1010.7
20260504181518 23 0.0 1.6 0.00 0.05 0.03 54 1010.7
20260504180518 22 0.0 0.0 0.00 0.05 0.03 59 1010.6
20260504175538 22 0.0 4.8 0.00 0.05 0.03 56 1010.6
20260504174538 22 203 3.2 16.1 0.00 0.05 0.03 57 1010.6
20260504173518 22 0.0 3.2 0.00 0.05 0.03 57 1010.6
20260504172539 22 0.0 1.6 0.00 0.05 0.03 57 1010.7
20260504171518 21 0.0 1.6 0.00 0.05 0.03 58 1010.7
20260504170519 21 203 3.2 16.1 0.00 0.05 0.03 57 1010.7
20260504150518 16 0.0 0.0 0.00 0.08 0.03 74 1011.7
20260504140538 12 0.0 0.0 0.00 0.10 0.03 83 1012.5